Location: アルンシュタイン
(50.0000°N, 10.0000°E)
Time: 05:39:00
(UTC+01:00)

Envisat - Pass Details

Date: 27 October 2021
Orbit: 764 x 766 km, 98.2° (Epoch: 04 December)

Event Time Altitude Azimuth Distance (km) Brightness Sun altitude
Rises 06:04:40 0° 18° (NNE) 3,246 6.5 -19.3°
Reaches altitude 10° 06:07:04 10° 24° (NNE) 2,314 5.8 -18.9°
Maximum altitude 06:11:59 47° 99° (E) 1,006 4.0 -18.1°
Drops below altitude 10° 06:16:52 10° 173° (S) 2,296 5.5 -17.3°
Sets 06:19:15 0° 179° (S) 3,217 6.2 -17.0°
